Вернуться в каталог

NOAA 16 DEB

АктивенSSO
NORAD 41301·DEBRIS·🇺🇸 United States

Запущен Sep 21, 2000 с Vandenberg Space Force Base

Loading…

Ближайшие Пролёты (ближайшие 24 часа)

TLE

СвежийSource: Space-Track

Эпоха: Sep 13, 2026, 08:06 UTC

1 41301U 00055HD  26256.33795082  .00002387  00000-0  10038-2 0  9991
2 41301  98.7048 296.9227 0018109 279.8720  80.0416 14.26680826552282

Отслеживайте NOAA 16 DEB в реальном времени с AllMySat

Download on the App Store